timestamp,wind_dir_avg,wind_spd_max_dir,wind_spd_avg,wind_spd_gust,battery_voltage,lat,long
2018-11-30 00:00:00+00:00,59.0,58.0,13.17,14.6,,47.59359,-54.27349
2018-11-30 00:10:00+00:00,60.0,56.0,14.15,16.17,,47.59359,-54.27349
2018-11-30 00:20:00+00:00,66.0,66.0,12.58,15.63,,47.59359,-54.27349
2018-11-30 00:30:00+00:00,63.0,58.0,12.72,14.85,,47.59359,-54.27349
2018-11-30 00:40:00+00:00,69.0,73.0,11.74,14.02,,47.59359,-54.27349
2018-11-30 00:50:00+00:00,62.0,58.0,13.26,14.93,,47.59359,-54.27349
2018-11-30 01:00:00+00:00,66.0,61.0,11.94,13.83,,47.59359,-54.27349
2018-11-30 01:10:00+00:00,60.0,60.0,11.51,13.27,,47.59359,-54.27349
2018-11-30 01:20:00+00:00,62.0,61.0,10.91,12.7,,47.59359,-54.27349
2018-11-30 01:30:00+00:00,58.0,60.0,12.47,13.75,,47.59359,-54.27349
2018-11-30 01:40:00+00:00,57.0,65.0,13.7,15.28,,47.59359,-54.27349
2018-11-30 01:50:00+00:00,57.0,61.0,14.24,15.56,,47.59359,-54.27349
2018-11-30 02:00:00+00:00,69.0,69.0,13.03,15.54,,47.59359,-54.27349
2018-11-30 02:10:00+00:00,61.0,59.0,12.69,14.79,,47.59359,-54.27349
2018-11-30 02:20:00+00:00,62.0,60.0,12.46,14.63,,47.59359,-54.27349
2018-11-30 02:30:00+00:00,68.0,63.0,13.6,15.52,,47.59359,-54.27349
2018-11-30 02:40:00+00:00,66.0,64.0,13.78,15.42,,47.59359,-54.27349
2018-11-30 02:50:00+00:00,64.0,58.0,14.43,15.65,,47.59359,-54.27349
2018-11-30 03:00:00+00:00,58.0,61.0,14.06,15.65,,47.59359,-54.27349
2018-11-30 03:10:00+00:00,56.0,59.0,12.79,14.64,,47.59359,-54.27349
2018-11-30 03:20:00+00:00,58.0,60.0,12.87,14.96,,47.59359,-54.27349
2018-11-30 03:30:00+00:00,55.0,55.0,15.64,18.07,,47.59359,-54.27349
2018-11-30 03:40:00+00:00,58.0,54.0,16.24,18.02,,47.59359,-54.27349
2018-11-30 03:50:00+00:00,60.0,61.0,15.43,17.73,,47.59359,-54.27349
2018-11-30 04:00:00+00:00,59.0,56.0,15.64,19.16,,47.59359,-54.27349
2018-11-30 04:10:00+00:00,59.0,57.0,16.1,17.99,,47.59359,-54.27349
2018-11-30 04:20:00+00:00,57.0,62.0,16.24,18.78,,47.59359,-54.27349
2018-11-30 04:30:00+00:00,60.0,61.0,14.68,18.7,,47.59359,-54.27349
2018-11-30 04:40:00+00:00,61.0,68.0,13.65,16.69,,47.59359,-54.27349
2018-11-30 04:50:00+00:00,57.0,56.0,14.99,16.54,,47.59359,-54.27349
2018-11-30 05:00:00+00:00,61.0,56.0,16.22,17.84,,47.59359,-54.27349
2018-11-30 05:10:00+00:00,48.0,47.0,15.07,16.73,,47.59359,-54.27349
2018-11-30 05:20:00+00:00,47.0,45.0,14.94,16.9,,47.59359,-54.27349
2018-11-30 05:30:00+00:00,48.0,50.0,15.43,17.76,,47.59359,-54.27349
2018-11-30 05:40:00+00:00,46.0,46.0,15.72,17.49,,47.59359,-54.27349
2018-11-30 05:50:00+00:00,50.0,52.0,16.65,18.41,,47.59359,-54.27349
2018-11-30 06:00:00+00:00,50.0,50.0,15.19,18.11,,47.59359,-54.27349
2018-11-30 06:10:00+00:00,48.0,51.0,16.94,18.68,,47.59359,-54.27349
2018-11-30 06:20:00+00:00,50.0,58.0,15.69,17.99,,47.59359,-54.27349
2018-11-30 06:30:00+00:00,49.0,46.0,14.6,16.99,,47.59359,-54.27349
2018-11-30 06:40:00+00:00,41.0,42.0,18.53,21.06,,47.59359,-54.27349
2018-11-30 06:50:00+00:00,33.0,36.0,18.84,21.19,,47.59359,-54.27349
2018-11-30 07:00:00+00:00,34.0,37.0,13.16,15.54,,47.59359,-54.27349
2018-11-30 07:10:00+00:00,45.0,44.0,16.0,18.37,,47.59359,-54.27349
2018-11-30 07:20:00+00:00,50.0,45.0,15.34,17.33,,47.59359,-54.27349
2018-11-30 07:30:00+00:00,48.0,43.0,15.05,16.89,,47.59359,-54.27349
2018-11-30 07:40:00+00:00,50.0,44.0,14.75,17.83,,47.59359,-54.27349
2018-11-30 07:50:00+00:00,52.0,57.0,17.53,19.69,,47.59359,-54.27349
2018-11-30 08:00:00+00:00,56.0,55.0,16.41,19.64,,47.59359,-54.27349
2018-11-30 08:10:00+00:00,53.0,51.0,16.82,19.3,,47.59359,-54.27349
2018-11-30 08:20:00+00:00,48.0,45.0,16.1,18.85,,47.59359,-54.27349
2018-11-30 08:30:00+00:00,48.0,58.0,15.32,18.46,,47.59359,-54.27349
2018-11-30 08:40:00+00:00,47.0,49.0,15.91,19.35,,47.59359,-54.27349
2018-11-30 08:50:00+00:00,50.0,56.0,16.44,19.74,,47.59359,-54.27349
2018-11-30 09:00:00+00:00,49.0,52.0,14.36,17.48,,47.59359,-54.27349
2018-11-30 09:10:00+00:00,44.0,44.0,14.88,17.68,,47.59359,-54.27349
2018-11-30 09:20:00+00:00,45.0,41.0,14.15,16.83,,47.59359,-54.27349
2018-11-30 09:30:00+00:00,45.0,46.0,16.76,18.38,,47.59359,-54.27349
2018-11-30 09:40:00+00:00,44.0,47.0,16.03,18.33,,47.59359,-54.27349
2018-11-30 09:50:00+00:00,40.0,37.0,15.21,17.68,,47.59359,-54.27349
2018-11-30 10:00:00+00:00,45.0,43.0,16.54,18.13,,47.59359,-54.27349
2018-11-30 10:10:00+00:00,44.0,49.0,15.45,18.73,,47.59359,-54.27349
2018-11-30 10:20:00+00:00,41.0,40.0,15.31,17.45,,47.59359,-54.27349
2018-11-30 10:30:00+00:00,39.0,35.0,15.82,18.39,,47.59359,-54.27349
2018-11-30 10:40:00+00:00,41.0,41.0,13.16,14.88,,47.59359,-54.27349
2018-11-30 10:50:00+00:00,37.0,41.0,14.2,17.64,,47.59359,-54.27349
2018-11-30 11:00:00+00:00,40.0,43.0,13.07,15.53,,47.59359,-54.27349
2018-11-30 11:10:00+00:00,35.0,38.0,14.01,16.6,,47.59359,-54.27349
2018-11-30 11:20:00+00:00,34.0,34.0,13.52,15.04,,47.59359,-54.27349
2018-11-30 11:30:00+00:00,29.0,26.0,13.48,16.63,,47.59359,-54.27349
2018-11-30 11:40:00+00:00,35.0,40.0,12.78,14.63,,47.59359,-54.27349
2018-11-30 11:50:00+00:00,34.0,36.0,13.98,16.06,,47.59359,-54.27349
2018-11-30 12:00:00+00:00,34.0,37.0,13.13,16.63,,47.59359,-54.27349
2018-11-30 12:10:00+00:00,31.0,24.0,13.08,15.49,,47.59359,-54.27349
2018-11-30 12:20:00+00:00,29.0,26.0,14.6,16.73,,47.59359,-54.27349
2018-11-30 12:30:00+00:00,34.0,36.0,12.92,14.84,,47.59359,-54.27349
2018-11-30 12:40:00+00:00,32.0,36.0,13.16,16.66,,47.59359,-54.27349
2018-11-30 12:50:00+00:00,36.0,36.0,12.19,13.53,,47.59359,-54.27349
2018-11-30 13:00:00+00:00,32.0,32.0,13.41,15.27,,47.59359,-54.27349
2018-11-30 13:10:00+00:00,32.0,37.0,12.67,15.74,,47.59359,-54.27349
2018-11-30 13:20:00+00:00,28.0,29.0,12.68,14.76,,47.59359,-54.27349
2018-11-30 13:30:00+00:00,32.0,31.0,14.6,16.26,,47.59359,-54.27349
2018-11-30 13:40:00+00:00,24.0,28.0,12.71,14.44,,47.59359,-54.27349
2018-11-30 13:50:00+00:00,23.0,13.0,12.15,13.95,,47.59359,-54.27349
2018-11-30 14:00:00+00:00,27.0,30.0,14.62,16.74,,47.59359,-54.27349
2018-11-30 14:10:00+00:00,24.0,27.0,13.29,15.7,,47.59359,-54.27349
2018-11-30 14:20:00+00:00,16.0,11.0,11.59,16.02,,47.59359,-54.27349
2018-11-30 14:30:00+00:00,14.0,15.0,12.02,14.27,,47.59359,-54.27349
2018-11-30 14:40:00+00:00,16.0,15.0,11.73,14.04,,47.59359,-54.27349
2018-11-30 14:50:00+00:00,12.0,8.0,13.43,16.32,,47.59359,-54.27349
2018-11-30 15:00:00+00:00,15.0,14.0,12.96,15.12,,47.59359,-54.27349
2018-11-30 15:10:00+00:00,8.0,0.0,15.94,19.12,,47.59359,-54.27349
2018-11-30 15:20:00+00:00,7.0,1.0,13.2,14.47,,47.59359,-54.27349
2018-11-30 15:30:00+00:00,8.0,13.0,13.51,15.51,,47.59359,-54.27349
2018-11-30 15:40:00+00:00,6.0,3.0,15.01,17.92,,47.59359,-54.27349
2018-11-30 15:50:00+00:00,11.0,12.0,15.92,18.15,,47.59359,-54.27349
2018-11-30 16:00:00+00:00,14.0,10.0,14.76,17.43,,47.59359,-54.27349
2018-11-30 16:10:00+00:00,16.0,16.0,14.78,17.01,,47.59359,-54.27349
2018-11-30 16:20:00+00:00,7.0,5.0,16.27,19.3,,47.59359,-54.27349
2018-11-30 16:30:00+00:00,6.0,8.0,17.12,19.91,,47.59359,-54.27349
2018-11-30 16:40:00+00:00,10.0,15.0,15.0,18.49,,47.59359,-54.27349
2018-11-30 16:50:00+00:00,2.0,357.0,15.77,17.67,,47.59359,-54.27349
2018-11-30 17:00:00+00:00,6.0,11.0,13.92,16.61,,47.59359,-54.27349
2018-11-30 17:10:00+00:00,0.0,7.0,14.3,17.46,,47.59359,-54.27349
2018-11-30 17:20:00+00:00,10.0,17.0,17.64,20.73,,47.59359,-54.27349
2018-11-30 17:30:00+00:00,6.0,7.0,19.22,21.6,,47.59359,-54.27349
2018-11-30 17:40:00+00:00,10.0,14.0,18.22,22.66,,47.59359,-54.27349
2018-11-30 17:50:00+00:00,8.0,14.0,14.97,20.6,,47.59359,-54.27349
2018-11-30 18:00:00+00:00,7.0,1.0,15.3,18.11,,47.59359,-54.27349
2018-11-30 18:10:00+00:00,0.0,6.0,19.71,25.21,,47.59359,-54.27349
2018-11-30 18:20:00+00:00,3.0,0.0,18.68,22.45,,47.59359,-54.27349
2018-11-30 18:30:00+00:00,6.0,9.0,17.25,20.58,,47.59359,-54.27349
2018-11-30 18:40:00+00:00,1.0,3.0,18.47,21.76,,47.59359,-54.27349
2018-11-30 18:50:00+00:00,4.0,2.0,16.86,21.2,,47.59359,-54.27349
2018-11-30 19:00:00+00:00,6.0,2.0,17.88,21.02,,47.59359,-54.27349
2018-11-30 19:10:00+00:00,7.0,7.0,16.89,20.2,,47.59359,-54.27349
2018-11-30 19:20:00+00:00,0.0,1.0,18.73,21.84,,47.59359,-54.27349
2018-11-30 19:30:00+00:00,7.0,10.0,16.43,18.42,,47.59359,-54.27349
2018-11-30 19:40:00+00:00,7.0,12.0,17.73,20.84,,47.59359,-54.27349
2018-11-30 19:50:00+00:00,7.0,8.0,18.19,19.97,,47.59359,-54.27349
2018-11-30 20:00:00+00:00,7.0,1.0,16.37,19.88,,47.59359,-54.27349
2018-11-30 20:10:00+00:00,9.0,14.0,16.96,19.86,,47.59359,-54.27349
2018-11-30 20:20:00+00:00,8.0,354.0,17.19,20.3,,47.59359,-54.27349
2018-11-30 20:30:00+00:00,6.0,6.0,16.12,19.15,,47.59359,-54.27349
2018-11-30 20:40:00+00:00,4.0,359.0,17.84,21.62,,47.59359,-54.27349
2018-11-30 20:50:00+00:00,9.0,6.0,14.64,17.73,,47.59359,-54.27349
2018-11-30 21:00:00+00:00,8.0,4.0,15.06,18.68,,47.59359,-54.27349
2018-11-30 21:10:00+00:00,10.0,2.0,14.84,18.05,,47.59359,-54.27349
2018-11-30 21:20:00+00:00,11.0,12.0,16.72,18.96,,47.59359,-54.27349
2018-11-30 21:30:00+00:00,14.0,14.0,15.44,17.68,,47.59359,-54.27349
2018-11-30 21:40:00+00:00,18.0,23.0,16.21,18.85,,47.59359,-54.27349
2018-11-30 21:50:00+00:00,16.0,16.0,15.6,18.57,,47.59359,-54.27349
2018-11-30 22:00:00+00:00,18.0,15.0,14.77,18.11,,47.59359,-54.27349
2018-11-30 22:10:00+00:00,17.0,13.0,13.96,17.98,,47.59359,-54.27349
2018-11-30 22:20:00+00:00,20.0,12.0,13.8,16.74,,47.59359,-54.27349
2018-11-30 22:30:00+00:00,16.0,21.0,14.52,17.86,,47.59359,-54.27349
2018-11-30 22:40:00+00:00,13.0,14.0,15.68,18.6,,47.59359,-54.27349
2018-11-30 22:50:00+00:00,13.0,6.0,14.28,16.87,,47.59359,-54.27349
2018-11-30 23:00:00+00:00,14.0,12.0,13.43,15.95,,47.59359,-54.27349
2018-11-30 23:10:00+00:00,15.0,18.0,13.6,16.11,,47.59359,-54.27349
2018-11-30 23:20:00+00:00,17.0,19.0,14.26,17.44,,47.59359,-54.27349
2018-11-30 23:30:00+00:00,16.0,18.0,14.46,16.98,,47.59359,-54.27349
2018-11-30 23:40:00+00:00,19.0,15.0,12.99,14.68,,47.59359,-54.27349
2018-11-30 23:50:00+00:00,16.0,19.0,13.75,15.82,,47.59359,-54.27349
